User: anonymous   Login
Location: Berg
(47.2344°N, 9.5296°E)
Time: 11:07:26
(UTC+00:00)
Language:

Cosmos 2026 Rocket - Orbit

View from above orbital plane
View from above orbital plane
View from above satellite
View from above satellite

Ground track
Ground track

The orbit data is extracted from the following two-line orbital elements,

1 20046U 89042B   21113.15528587  .00000108  00000-0  90489-4 0  9997
2 20046  82.9371 335.3177 0043393  86.0510 274.5607 13.78223161602907
Epoch (UTC): 23 April 2021 03:43:36
Eccentricity: 0.0043393
inclination: 82.9371°
perigee height: 938 km
apogee height: 1002 km
right ascension of ascending node: 335.3177°
argument of perigee: 86.0510°
revolutions per day: 13.78223161
mean anomaly at epoch: 274.5607°
orbit number at epoch: 60290

The dashed part of the orbit path shows where the satellite is in the earth's shadow,  

DLR